Date String (YYYY-MM-DD hh:mm:ss) UTC,Instrument flags,absolute air pressure of the measurement (hPa),sample flow rate (lpm),inlet stack bypass flow (lpm),air temperature of the measurement (°C),ambient temperature measured by the external sensor (°C),aerosol sample conditioner tube jacket temperature (°C),OPC LED temperature (°C),internal box temperature (°C),relative humidity of the measurement (%),span deviation,mass concentration of particles derived from Lorenz-Mie calculation of OPC scattering (μg/m³),mass concentration of particles derived from Lorenz-Mie calculation of OPC scattering (μg/m³),mass concentration of particles derived from Lorenz-Mie calculation of OPC scattering (μg/m³)
DateTimeUTC,F1_M11,P_M11,Q1_M11,Q2_M11,T1_M11,T2_M11,T3_M11,T4_M11,T5_M11,U1_M11,ZSPAN_M11,X0_M11,X2_M11,X1_M11
2024-03-08 20:00:00,SystemResetWarning,0832.4,5.00,000.00,018.5,017.8,000.0,027.0,020.2,20.2,0000.0,0008.10,0006.07,0005.93
2024-03-08 20:01:00,SystemResetWarning,0832.4,5.00,000.00,018.4,017.8,000.0,027.0,020.2,20.2,0000.0,0008.08,0005.99,0005.84
2024-03-08 20:02:00,SystemResetWarning,0832.3,5.01,000.00,018.4,017.8,000.0,027.0,020.2,19.9,0000.0,0008.12,0005.97,0005.79
2024-03-08 20:03:00,SystemResetWarning,0832.3,5.00,000.00,018.4,017.8,000.0,027.0,020.2,19.7,0000.0,0008.02,0005.92,0005.75
2024-03-08 20:04:00,SystemResetWarning,0832.3,5.01,000.00,018.4,017.8,000.0,027.0,020.2,19.7,0000.0,0007.96,0005.88,0005.72
2024-03-08 20:05:00,SystemResetWarning,0832.3,5.00,000.00,018.4,017.8,000.0,027.0,020.2,19.9,0000.0,0007.89,0005.83,0005.68
2024-03-08 20:06:00,SystemResetWarning,0832.3,5.00,000.00,018.4,017.8,000.0,027.0,020.2,20.4,0000.0,0008.10,0005.80,0005.65
2024-03-08 20:07:00,SystemResetWarning,0832.3,5.00,000.00,018.4,017.8,000.0,027.0,020.2,20.6,0000.0,0008.25,0005.80,0005.64
2024-03-08 20:08:00,SystemResetWarning,0832.4,5.00,000.00,018.4,017.8,000.0,027.0,020.2,20.7,0000.0,0008.26,0005.80,0005.64
2024-03-08 20:09:00,SystemResetWarning,0832.4,4.99,000.00,018.4,017.8,000.0,027.0,020.2,20.8,0000.0,0008.33,0005.84,0005.66
2024-03-08 20:10:00,SystemResetWarning,0832.4,5.00,000.00,018.4,017.8,000.0,027.0,020.2,20.8,0000.0,0008.35,0005.86,0005.66
2024-03-08 20:11:00,SystemResetWarning,0832.3,5.00,000.00,018.4,017.7,000.0,027.0,020.2,20.9,0000.0,0008.36,0005.88,0005.68
2024-03-08 20:12:00,SystemResetWarning,0832.3,5.00,000.00,018.4,017.7,000.0,027.0,020.2,20.8,0000.0,0008.30,0005.87,0005.68
2024-03-08 20:13:00,SystemResetWarning,0832.3,5.00,000.00,018.4,017.7,000.0,027.0,020.1,20.9,0000.0,0008.21,0005.86,0005.68
2024-03-08 20:14:00,SystemResetWarning,0832.3,5.00,000.00,018.4,017.7,000.0,027.0,020.1,21.2,0000.0,0008.23,0005.88,0005.70
2024-03-08 20:15:00,SystemResetWarning,0832.3,5.00,000.00,018.4,017.7,000.0,027.0,020.1,21.4,0000.0,0008.26,0005.91,0005.73
2024-03-08 20:16:00,SystemResetWarning,0832.3,4.99,000.00,018.4,017.7,000.0,027.0,020.1,21.4,0000.0,0008.29,0005.93,0005.75
2024-03-08 20:17:00,SystemResetWarning,0832.3,5.00,000.00,018.4,017.7,000.0,027.0,020.1,21.3,0000.0,0008.19,0005.98,0005.79
2024-03-08 20:18:00,SystemResetWarning,0832.3,5.00,000.00,018.3,017.6,000.0,027.0,020.1,21.3,0000.0,0008.06,0006.03,0005.83
2024-03-08 20:19:00,SystemResetWarning,0832.3,5.00,000.00,018.3,017.6,000.0,027.0,020.1,20.9,0000.0,0008.15,0006.08,0005.86
2024-03-08 20:20:00,SystemResetWarning,0832.3,5.02,000.00,018.3,017.6,000.0,026.9,020.1,20.8,0000.0,0008.18,0006.10,0005.89
2024-03-08 20:21:00,SystemResetWarning,0832.3,5.00,000.00,018.3,017.6,000.0,026.9,020.1,20.7,0000.0,0008.17,0006.10,0005.90
2024-03-08 20:22:00,SystemResetWarning,0832.3,4.99,000.00,018.3,017.6,000.0,026.9,020.1,20.5,0000.0,0008.18,0006.13,0005.93
2024-03-08 20:23:00,SystemResetWarning,0832.3,4.99,000.00,018.3,017.6,000.0,026.9,020.1,20.6,0000.0,0008.24,0006.17,0005.97
2024-03-08 20:24:00,SystemResetWarning,0832.3,5.01,000.00,018.3,017.6,000.0,026.9,020.1,21.0,0000.0,0008.29,0006.21,0006.00
2024-03-08 20:25:00,SystemResetWarning,0832.3,5.01,000.00,018.3,017.6,000.0,026.9,020.1,21.2,0000.0,0008.32,0006.23,0006.02
2024-03-08 20:26:00,SystemResetWarning,0832.3,5.00,000.00,018.3,017.6,000.0,026.9,020.0,21.2,0000.0,0008.40,0006.28,0006.05
2024-03-08 20:27:00,SystemResetWarning,0832.3,5.00,000.00,018.3,017.6,000.0,026.9,020.0,21.3,0000.0,0008.49,0006.32,0006.09
2024-03-08 20:28:00,SystemResetWarning,0832.3,5.00,000.00,018.3,017.6,000.0,026.9,020.0,21.2,0000.0,0008.53,0006.37,0006.13
2024-03-08 20:29:00,SystemResetWarning,0832.3,4.99,000.00,018.3,017.6,000.0,026.9,020.0,21.0,0000.0,0008.46,0006.37,0006.16
2024-03-08 20:30:00,SystemResetWarning,0832.3,4.99,000.00,018.3,017.6,000.0,026.9,020.1,20.6,0000.0,0008.38,0006.36,0006.17
2024-03-08 20:31:00,SystemResetWarning,0832.3,5.00,000.00,018.4,018.2,000.0,027.1,020.4,20.6,0000.0,0008.36,0006.37,0006.19
2024-03-08 20:32:00,SystemResetWarning,0832.4,5.02,000.00,018.6,019.0,000.0,027.1,020.9,20.5,0000.0,0008.38,0006.40,0006.22
2024-03-08 20:33:00,SystemResetWarning,0832.3,5.00,000.00,018.7,019.0,000.0,027.1,021.0,20.3,0000.0,0008.41,0006.43,0006.24
2024-03-08 20:34:00,SystemResetWarning,0832.3,4.99,000.00,018.8,018.9,000.0,027.1,020.8,20.3,0000.0,0008.42,0006.44,0006.25
2024-03-08 20:35:00,SystemResetWarning,0832.3,5.00,000.00,018.8,018.7,000.0,027.1,020.7,20.3,0000.0,0008.40,0006.45,0006.26
2024-03-08 20:36:00,SystemResetWarning,0832.3,5.01,000.00,018.8,018.6,000.0,027.1,020.7,20.2,0000.0,0008.43,0006.50,0006.31
2024-03-08 20:37:00,SystemResetWarning,0832.3,5.01,000.00,018.8,018.5,000.0,027.1,020.6,19.9,0000.0,0008.41,0006.52,0006.35
2024-03-08 20:38:00,SystemResetWarning,0832.3,5.00,000.00,018.7,018.4,000.0,027.1,020.6,19.8,0000.0,0008.41,0006.57,0006.39
2024-03-08 20:39:00,SystemResetWarning,0832.3,4.99,000.00,018.7,018.3,000.0,027.1,020.6,19.8,0000.0,0008.31,0006.56,0006.41
2024-03-08 20:40:00,SystemResetWarning,0832.3,4.99,000.00,018.7,018.3,000.0,027.1,020.5,19.5,0000.0,0008.33,0006.60,0006.44
2024-03-08 20:41:00,SystemResetWarning,0832.3,5.01,000.00,018.7,018.2,000.0,027.2,020.5,19.6,0000.0,0008.33,0006.62,0006.47
2024-03-08 20:42:00,SystemResetWarning,0832.3,5.01,000.00,018.7,018.2,000.0,027.2,020.5,19.5,0000.0,0008.29,0006.64,0006.50
2024-03-08 20:43:00,SystemResetWarning,0832.3,4.99,000.00,018.7,018.1,000.0,027.2,020.5,19.8,0000.0,0008.31,0006.68,0006.53
2024-03-08 20:44:00,SystemResetWarning,0832.3,4.99,000.00,018.7,018.1,000.0,027.2,020.5,19.9,0000.0,0008.34,0006.71,0006.56
2024-03-08 20:45:00,SystemResetWarning,0832.3,5.01,000.00,018.7,018.0,000.0,027.2,020.4,19.5,0000.0,0008.67,0006.74,0006.60
2024-03-08 20:46:00,SystemResetWarning,0832.3,5.01,000.00,018.7,018.0,000.0,027.2,020.4,19.1,0000.0,0009.54,0006.76,0006.61
2024-03-08 20:47:00,SystemResetWarning,0832.3,4.98,000.00,018.6,018.0,000.0,027.2,020.4,18.8,0000.0,0009.55,0006.75,0006.59
2024-03-08 20:48:00,SystemResetWarning,0832.3,4.99,000.00,018.6,018.0,000.0,027.2,020.4,18.9,0000.0,0009.52,0006.72,0006.56
2024-03-08 20:49:00,SystemResetWarning,0832.3,5.00,000.00,018.6,018.0,000.0,027.2,020.4,19.2,0000.0,0009.47,0006.67,0006.53
2024-03-08 20:50:00,SystemResetWarning,0832.3,5.00,000.00,018.6,018.0,000.0,027.2,020.4,19.4,0000.0,0009.51,0006.66,0006.50
2024-03-08 20:51:00,SystemResetWarning,0832.3,5.01,000.00,018.6,018.0,000.0,027.2,020.4,19.6,0000.0,0009.54,0006.64,0006.46
2024-03-08 20:52:00,SystemResetWarning,0832.3,5.00,000.00,018.6,017.9,000.0,027.2,020.4,19.8,0000.0,0009.55,0006.62,0006.43
2024-03-08 20:53:00,SystemResetWarning,0832.3,4.98,000.00,018.6,017.9,000.0,027.2,020.4,19.6,0000.0,0009.54,0006.59,0006.40
2024-03-08 20:54:00,SystemResetWarning,0832.3,4.99,000.00,018.6,017.9,000.0,027.2,020.3,19.3,0000.0,0009.51,0006.54,0006.36
2024-03-08 20:55:00,SystemResetWarning,0832.3,5.02,000.00,018.6,017.9,000.0,027.2,020.3,18.9,0000.0,0009.45,0006.49,0006.31
2024-03-08 20:56:00,SystemResetWarning,0832.3,5.00,000.00,018.6,017.9,000.0,027.1,020.3,18.8,0000.0,0009.09,0006.42,0006.25
2024-03-08 20:57:00,SystemResetWarning,0832.4,4.99,000.00,018.6,017.9,000.0,027.1,020.3,19.2,0000.0,0008.16,0006.37,0006.21
2024-03-08 20:58:00,SystemResetWarning,0832.4,4.99,000.00,018.5,017.9,000.0,027.1,020.3,19.5,0000.0,0008.11,0006.33,0006.18
2024-03-08 20:59:00,SystemResetWarning,0832.3,5.00,000.00,018.5,017.9,000.0,027.1,020.3,19.5,0000.0,0008.10,0006.29,0006.13
